Temp
48 39 35 42 45 48 47 45 46 53 61 58 59 60 62 68 66 65 65 67 67 71 72 74 71 72 72 73 73 71 71 70 71 70 73 74 72 72 72 75 76 76 77 77
41 35 45 49 48 47 46 44 43 51 61 58 59 56 65 65 65 66 66 65 68 69 69 74 69 70 71 71 71 71 72 70 69 69 73 72 71 70 72 73 74 74 73 74
37 41 50 47 44 44 44 42 45 45 55 61 57 55 58 67 71 67 68 69 70 72 69 71 68 69 69 69 70 70 71 71 70 73 72 70 70 69 70 70 71 72 73 73
38 44 45 44 41 44 38 51 50 50 47 43 59 44 52 63 65 67 66 65 70 69 69 69 68 68 69 68 67 70 70 69 69 69 70 70 69 68 69 69 69 69 71 70
40 43 43 41 43 49 43 51 48 47 48 45 54 46 55 59 60 66 64 67 70 69 69 66 69 70 70 69 68 70 69 66 66 66 66 67 68 65 69 68 66 66 66 67
40 50 47 46 52 52 53 47 47 48 46 39 49 48 47 52 61 63 65 65 69 67 68 65 70 71 70 69 69 70 69 67 66 67 68 69 67 65 66 66 64 64 63 62
39 40 46 51 41 48 48 43 30 30 33 31 46 46 46 60 68 65 63 64 68 70 65 67 67 67 66 65 67 68 69 69 69 70 69 70 69 69 66 66 63 61 60 61
32 33 44 49 44 41 43 38 31 28 29 31 49 40 48 62 70 68 67 66 69 67 63 68 68 68 68 66 65 68 67 65 64 66 65 65 65 64 64 63 61 60 61 60
32 34 51 51 51 48 44 34 43 33 39 37 42 46 58 61 62 64 65 64 65 61 65 67 67 68 65 64 65 64 63 62 62 62 61 62 61 60 60 61 61 59 60 62
38 32 48 51 53 52 45 49 33 34 29 32 38 43 44 55 57 64 61 57 58 62 64 65 65 65 64 64 63 63 62 61 61 61 61 60 60 60 59 59 58 58 58 58
41 37 43 48 42 43 40 40 42 41 37 35 31 39 50 51 57 58 53 57 61 62 62 62 63 64 64 64 62 61 61 61 60 59 60 59 58 59 59 58 57 57 57 57
41 38 32 43 50 54 47 45 43 32 35 40 37 37 51 51 58 57 58 59 61 62 61 62 62 62 62 62 62 61 62 62 61 62 62 59 57 58 57 55 55 56 55 56
41 37 27 34 40 47 42 49 46 43 40 36 33 39 52 54 56 57 57 59 59 60 61 62 63 61 61 61 61 61 61 61 62 61 59 56 55 55 53 53 54 55 56 54
45 38 34 29 37 41 40 48 51 44 34 37 39 44 49 52 55 56 56 57 58 59 59 59 59 61 61 61 61 60 59 59 59 57 55 53 52 53 52 53 55 54 55 53
43 35 37 40 44 45 47 46 48 46 42 39 43 45 48 50 53 56 57 57 57 57 57 57 57 58 59 59 59 59 59 58 57 56 53 52 52 53 54 53 52 53 53 52
43 36 37 38 47 47 46 49 48 50 48 44 48 45 51 54 56 54 55 56 55 55 55 56 57 57 57 57 58 58 57 55 56 54 53 54 53 54 51 52 52 51 51 50
38 38 37 29 40 42 36 40 49 48 49 50 43 47 52 52 52 52 53 55 54 54 54 55 55 55 55 55 56 54 54 56 54 54 55 54 54 52 51 52 51 50 49 48
39 38 37 30 35 22 40 46 52 49 50 49 48 49 50 51 53 54 54 52 53 53 53 54 54 52 52 53 54 55 55 55 54 53 53 53 53 51 50 50 49 52 51 47
44 41 36 29 31 38 41 39 40 41 45 51 47 48 48 48 49 48 53 52 51 51 50 50 51 51 51 51 53 53 52 52 53 52 51 52 52 51 50 48 48 53 51 49
41 42 39 33 30 28 35 39 44 43 40 51 50 47 47 51 38 41 50 50 50 51 50 50 50 50 49 48 50 49 48 48 48 49 49 50 52 51 49 52 52 52 52 49
30 30 31 34 32 34 36 38 43 38 40 50 51 50 50 45 45 45 49 49 48 47 48 48 47 46 45 48 49 46 46 44 47 49 49 49 48 47 50 52 52 52 51 49
26 26 26 30 31 28 39 40 41 43 51 50 46 46 44 45 46 46 47 47 48 46 46 47 44 43 44 45 45 43 42 45 47 47 47 46 46 48 50 51 49 50 51 47
26 28 27 28 28 34 36 35 40 49 48 46 46 46 45 44 44 45 44 44 44 45 45 46 44 42 43 43 42 40 41 46 45 45 45 47 48 48 49 46 45 44 44 42
30 33 30 32 33 32 37 44 46 48 47 47 48 48 47 43 45 43 45 45 44 45 44 45 43 40 39 41 42 41 45 45 42 40 45 46 45 44 44 45 44 42 40 36
29 31 29 30 32 35 37 41 42 42 43 43 45 46 44 43 42 42 42 44 45 44 44 43 41 40 40 41 41 42 42 42 39 38 43 43 43 43 42 41 41 41 39 37
32 28 27 26 31 32 32 38 43 41 41 42 42 41 42 42 41 42 42 44 44 43 42 40 39 41 41 41 40 40 40 40 38 39 41 41 42 42 42 41 40 40 41 41
MSLP
1008.10 1008.50 1008.28 1007.71 1007.76 1007.42 1007.11 1006.06 1004.64 1003.19 1002.30 1001.85 1000.39 1000.64 1000.09 999.50 999.64 1000.06 1000.09 1000.37 1000.42 1000.28 1000.87 1001.69 1002.84 1003.46 1004.20 1004.86 1005.28 1005.72 1006.85 1007.60 1007.67 1008.00 1008.58 1009.02 1009.47 1010.28 1010.20 1010.08 1010.38 1010.79 1011.10 1011.21
1008.81 1007.83 1007.69 1007.69 1007.61 1007.30 1006.60 1005.71 1004.55 1003.66 1001.80 1001.03 1000.15 1000.11 999.75 999.45 999.20 999.47 999.98 1000.23 1000.13 1000.30 1001.40 1001.37 1002.86 1003.68 1004.26 1004.92 1005.68 1006.04 1007.06 1007.41 1007.88 1008.19 1008.72 1009.08 1009.81 1009.98 1009.97 1009.90 1010.23 1010.87 1011.36 1011.11
1008.10 1007.17 1007.08 1006.92 1006.77 1006.50 1005.83 1005.36 1004.91 1004.11 1002.06 1000.69 1000.38 1000.07 999.82 998.69 998.54 998.84 999.15 999.61 999.65 999.86 1001.16 1001.27 1002.69 1003.49 1004.58 1005.79 1006.18 1006.54 1006.72 1007.35 1007.78 1008.21 1008.30 1008.99 1010.19 1010.16 1010.08 1010.46 1010.75 1011.30 1011.23 1011.59
1007.52 1006.36 1006.60 1006.02 1005.70 1005.86 1005.44 1005.16 1004.77 1004.02 1003.20 1001.26 1000.01 999.53 999.12 998.36 998.51 998.78 999.10 999.48 999.50 1000.18 1000.74 1000.82 1002.35 1003.78 1004.85 1005.64 1006.23 1006.61 1006.85 1007.38 1007.43 1007.56 1008.28 1007.90 1010.00 1010.44 1010.31 1010.29 1011.15 1011.22 1011.61 1011.96
1006.09 1005.44 1005.16 1004.92 1004.44 1004.74 1004.21 1005.48 1005.12 1004.43 1003.22 1002.13 999.79 999.78 998.59 998.29 998.25 998.12 998.55 998.74 999.10 1000.04 1000.23 1000.98 1002.30 1003.46 1004.52 1005.18 1005.90 1006.45 1006.92 1007.63 1007.38 1007.16 1008.14 1008.84 1009.63 1010.32 1011.10 1011.47 1011.40 1012.08 1012.53 1012.83
1005.61 1005.35 1004.65 1003.87 1003.55 1003.86 1004.18 1005.29 1005.10 1004.40 1003.46 1001.98 1000.14 999.01 998.46 997.67 996.83 997.01 998.00 998.44 999.01 999.92 1000.04 1001.28 1002.18 1003.47 1004.67 1005.15 1006.06 1006.36 1006.73 1007.10 1007.30 1007.90 1008.04 1008.92 1009.20 1011.13 1011.50 1012.40 1011.18 1012.67 1013.20 1013.52
1005.02 1004.18 1003.47 1003.42 1003.54 1003.34 1003.79 1004.59 1004.98 1004.54 1003.35 1001.66 999.87 999.22 997.59 996.21 995.65 996.83 997.55 998.16 998.71 999.30 1000.30 1001.67 1002.58 1003.81 1004.68 1005.59 1006.04 1006.77 1006.97 1007.45 1007.75 1008.35 1008.68 1009.66 1010.24 1011.12 1011.98 1011.55 1012.40 1013.40 1013.78 1013.98
1004.87 1002.72 1001.89 1001.62 1002.17 1002.08 1002.98 1004.52 1004.30 1003.30 1002.55 1001.46 1000.05 998.90 996.53 995.54 995.34 995.95 996.86 997.64 998.29 999.24 1000.36 1001.31 1002.34 1003.35 1004.33 1005.24 1006.21 1006.93 1007.67 1008.16 1008.78 1008.57 1009.17 1009.48 1010.18 1010.94 1011.84 1012.51 1012.82 1013.74 1013.90 1014.14
1005.07 1002.62 1000.38 1000.41 1001.16 1001.60 1002.30 1003.88 1003.88 1004.21 1002.14 1001.06 1000.24 998.71 996.88 995.92 995.77 996.23 996.84 997.62 998.65 1000.05 1000.48 1001.46 1002.72 1003.42 1004.61 1005.75 1006.61 1007.52 1008.30 1008.77 1009.15 1009.55 1009.97 1010.08 1010.67 1011.32 1011.48 1013.42 1013.77 1013.74 1014.62 1014.88
1005.18 1003.19 1000.13 999.98 1000.62 1001.16 1001.20 1002.53 1004.62 1004.39 1002.62 1001.42 1000.28 999.39 997.78 996.67 996.52 996.72 997.68 998.64 999.90 1000.60 1001.52 1002.31 1003.18 1004.19 1005.59 1006.46 1007.29 1008.21 1008.99 1009.57 1010.43 1010.68 1010.93 1011.84 1011.96 1012.62 1012.86 1013.96 1014.21 1014.73 1014.94 1015.26
1004.92 1003.68 1001.42 1000.72 1000.25 1000.67 1001.47 1002.02 1003.00 1002.99 1002.28 1001.00 1000.36 999.64 998.57 997.67 996.58 997.64 998.44 999.48 1000.22 1001.46 1002.32 1003.10 1004.34 1005.62 1006.30 1007.27 1008.08 1008.81 1009.74 1010.71 1011.34 1011.48 1011.75 1012.81 1013.26 1013.64 1014.04 1014.64 1015.06 1015.47 1015.50 1015.82
1005.16 1004.04 1002.38 1001.00 1000.32 999.83 1000.66 1001.15 1002.38 1002.71 1001.94 1001.18 1000.40 1000.50 999.24 997.86 997.01 997.74 999.35 1000.48 1001.26 1001.93 1003.06 1004.13 1004.87 1006.16 1007.06 1008.37 1009.18 1009.54 1010.66 1011.37 1011.93 1012.50 1013.12 1014.04 1014.36 1014.62 1015.01 1015.44 1015.64 1015.68 1015.97 1016.30
1005.19 1004.26 1002.99 1002.30 1002.13 1001.38 1000.79 1000.84 1001.70 1002.01 1001.83 1001.88 1000.84 1001.18 1000.21 998.88 998.65 998.70 999.94 1001.00 1002.00 1002.98 1003.60 1004.86 1006.00 1007.24 1008.17 1009.13 1009.76 1010.75 1011.40 1011.99 1012.89 1013.24 1013.92 1014.82 1015.23 1015.49 1015.67 1015.92 1016.24 1016.37 1016.80 1017.11
1004.96 1004.48 1003.56 1002.34 1001.76 1001.19 1000.66 1000.49 1001.21 1001.59 1002.14 1001.93 1001.35 1001.25 1001.06 1000.61 1000.34 1000.56 1000.71 1001.97 1003.02 1004.13 1004.84 1006.05 1007.28 1008.33 1009.31 1010.10 1010.45 1011.51 1012.42 1012.64 1013.60 1014.23 1014.80 1015.36 1015.91 1016.16 1016.29 1016.51 1016.90 1017.06 1017.46 1017.68
1004.61 1004.30 1003.60 1002.60 1002.31 1001.22 1000.13 1001.06 1001.36 1001.50 1002.17 1002.58 1002.04 1002.02 1002.24 1002.01 1001.72 1001.79 1001.88 1002.84 1003.96 1005.53 1006.53 1007.62 1008.54 1009.56 1010.30 1010.88 1011.72 1012.58 1013.13 1013.61 1014.35 1014.98 1015.65 1016.27 1016.60 1016.68 1016.56 1017.04 1017.39 1017.72 1018.08 1018.57
1004.56 1004.05 1003.57 1002.50 1001.49 1000.70 1001.36 1001.88 1001.80 1001.54 1002.14 1002.84 1002.86 1003.03 1002.75 1003.02 1003.03 1003.25 1003.57 1004.32 1005.39 1006.81 1008.02 1008.97 1009.79 1010.61 1011.54 1012.20 1013.02 1013.35 1013.61 1014.50 1015.09 1015.76 1016.46 1016.81 1016.98 1017.15 1017.47 1017.74 1017.97 1018.40 1018.74 1018.98
1004.42 1003.91 1003.56 1003.43 1002.32 1002.06 1002.89 1003.35 1002.49 1002.55 1002.47 1003.07 1003.37 1003.74 1003.84 1004.28 1004.52 1005.15 1005.56 1006.02 1007.09 1008.39 1009.46 1010.25 1011.06 1011.80 1012.74 1013.34 1013.64 1013.78 1014.22 1015.06 1015.82 1016.58 1017.13 1017.35 1017.64 1018.02 1018.40 1018.58 1018.72 1018.96 1019.28 1019.66
1004.18 1003.98 1003.74 1003.64 1003.09 1004.05 1004.56 1004.09 1002.88 1002.88 1003.06 1002.46 1003.50 1004.33 1004.75 1005.41 1006.48 1007.22 1007.95 1007.50 1008.98 1010.04 1011.00 1011.78 1012.37 1013.06 1013.78 1014.22 1014.44 1014.40 1015.21 1016.08 1017.05 1017.82 1018.30 1018.48 1018.63 1018.91 1018.99 1019.06 1019.18 1019.17 1019.56 1020.12
1004.34 1004.09 1004.15 1004.56 1004.88 1005.66 1005.81 1006.42 1006.25 1005.41 1004.41 1003.92 1004.54 1005.88 1006.65 1007.53 1007.63 1009.85 1010.21 1009.93 1010.44 1011.56 1012.58 1013.10 1013.42 1013.86 1014.47 1014.91 1015.20 1015.68 1016.49 1017.25 1017.97 1018.65 1018.94 1019.03 1019.02 1019.21 1019.27 1019.51 1019.58 1019.42 1019.78 1020.24
1005.60 1005.10 1005.22 1005.47 1006.26 1007.11 1008.17 1007.52 1007.36 1006.30 1005.18 1004.90 1004.84 1006.23 1007.45 1007.08 1009.90 1011.95 1012.15 1011.69 1011.81 1012.66 1013.78 1014.29 1014.11 1014.88 1015.43 1016.06 1016.20 1016.82 1017.73 1018.28 1018.95 1019.29 1019.50 1019.40 1019.20 1019.26 1019.51 1019.45 1019.48 1019.69 1019.97 1020.46
1008.32 1007.81 1007.42 1007.18 1007.91 1008.55 1009.39 1008.42 1007.48 1007.00 1007.05 1006.14 1006.65 1007.54 1008.04 1009.21 1010.70 1012.53 1012.82 1012.84 1013.26 1014.22 1014.84 1014.89 1015.19 1016.72 1017.42 1017.32 1017.50 1018.44 1018.98 1019.57 1019.81 1019.69 1019.66 1019.79 1019.79 1019.84 1019.85 1019.75 1019.94 1020.23 1020.58 1020.99
1011.61 1011.14 1010.58 1009.89 1009.80 1010.62 1009.52 1008.50 1007.77 1007.09 1006.65 1007.36 1008.18 1009.23 1009.86 1011.05 1012.60 1013.14 1013.86 1014.41 1014.75 1015.41 1015.76 1015.82 1017.04 1018.25 1018.54 1018.53 1018.64 1019.60 1020.11 1020.42 1020.30 1020.33 1020.40 1020.51 1020.47 1020.46 1020.41 1020.44 1020.80 1020.89 1021.24 1021.60
1013.47 1013.94 1013.25 1012.82 1012.84 1012.46 1011.50 1010.03 1008.68 1007.36 1007.87 1008.85 1009.14 1010.78 1010.58 1012.29 1013.43 1014.22 1015.09 1015.69 1016.47 1016.27 1016.71 1017.66 1018.40 1019.34 1019.90 1020.04 1020.20 1020.79 1021.02 1020.98 1021.14 1021.06 1021.21 1021.20 1021.20 1021.36 1021.38 1021.51 1021.86 1021.92 1022.33 1022.58
1014.83 1014.78 1014.32 1013.93 1013.07 1012.47 1011.13 1010.12 1009.79 1009.03 1010.00 1010.48 1011.28 1011.92 1012.64 1012.94 1014.48 1015.34 1016.06 1016.94 1016.97 1017.56 1018.36 1019.17 1019.72 1020.68 1021.32 1021.50 1021.54 1021.78 1021.76 1021.80 1021.96 1021.97 1021.98 1022.01 1022.07 1022.37 1022.41 1022.48 1022.70 1022.70 1023.00 1023.32
1016.92 1016.16 1015.69 1015.59 1014.76 1013.44 1012.29 1011.88 1011.24 1011.15 1011.62 1012.42 1013.03 1013.68 1014.37 1014.25 1015.94 1016.12 1016.80 1017.46 1018.22 1018.89 1019.69 1020.33 1021.00 1021.73 1022.18 1022.36 1022.42 1022.45 1022.61 1022.75 1022.93 1022.69 1022.70 1022.82 1022.96 1023.14 1023.32 1023.51 1023.53 1023.61 1023.80 1023.87
1017.88 1017.83 1017.43 1017.45 1017.07 1016.47 1015.91 1014.68 1013.78 1013.30 1013.99 1014.49 1014.56 1015.39 1016.38 1016.48 1017.14 1017.30 1018.03 1018.78 1019.34 1019.94 1020.61 1021.27 1021.76 1022.21 1022.66 1023.04 1023.09 1023.15 1023.37 1023.32 1023.38 1023.30 1023.49 1023.63 1023.71 1023.73 1023.82 1023.91 1024.12 1024.12 1024.09 1024.05
Wind_Speed
4 4 10 16 12 13 17 16 17 10 12 12 23 13 11 8 6 7 8 8 9 10 6 11 16 17 18 16 18 17 14 9 6 2 5 6 5 4 2 4 7 8 7 7
4 15 14 13 14 16 17 20 20 15 15 13 17 10 16 9 7 8 10 9 11 8 7 6 15 16 18 19 16 16 15 10 7 3 3 4 4 3 3 3 4 4 4 5
14 13 10 16 16 18 20 16 13 13 16 19 6 15 9 16 12 7 8 11 12 13 9 7 15 18 16 15 16 15 15 13 8 9 3 5 2 2 3 3 4 2 5 4
10 18 21 17 17 17 17 12 13 17 12 11 16 12 9 16 16 12 10 10 14 9 8 7 14 15 17 15 10 12 11 8 6 5 4 6 4 3 1 4 4 3 8 5
8 4 13 17 16 17 13 12 17 15 16 9 12 8 15 10 12 20 13 12 14 11 12 9 17 18 18 18 18 15 11 6 7 8 8 5 3 2 1 3 11 9 10 10
20 14 11 8 9 12 11 14 17 16 12 12 15 8 7 9 22 15 8 10 12 10 11 10 15 17 16 15 14 12 12 9 8 6 4 2 15 8 7 6 8 7 6 6
8 21 17 15 4 8 6 12 3 6 7 6 6 1 9 18 19 12 11 11 11 13 9 16 19 17 17 17 15 12 12 10 9 10 10 12 12 14 12 9 8 7 6 5
4 4 14 17 9 7 10 8 3 4 5 5 4 7 9 13 15 12 11 13 12 10 11 18 20 19 19 15 11 9 8 10 8 11 10 9 12 6 6 7 8 5 6 6
4 6 7 13 12 7 6 9 4 5 3 5 7 5 6 6 8 10 12 11 12 12 16 19 16 16 16 12 11 15 14 13 13 11 10 10 10 11 14 9 6 8 5 6
3 8 3 13 12 9 6 13 5 4 3 4 5 4 5 9 10 14 10 10 16 21 20 18 18 18 15 16 16 18 17 17 12 14 14 11 12 13 13 8 9 7 6 6
8 3 4 9 5 8 4 4 4 3 3 3 6 6 6 8 9 12 12 16 24 23 20 20 20 18 20 18 18 17 17 15 13 13 15 12 10 10 10 8 7 6 7 6
4 4 3 5 2 10 5 8 9 4 5 3 2 3 11 10 18 23 21 22 25 25 22 20 22 20 19 18 16 18 16 16 13 12 14 11 10 10 10 7 6 7 8 9
3 1 3 5 7 6 1 10 6 4 3 3 2 1 9 7 17 23 26 25 25 25 26 22 21 18 18 17 17 16 15 16 13 13 12 10 9 9 8 8 7 8 11 8
5 1 2 3 4 6 7 12 5 7 3 5 3 11 9 11 16 18 24 23 25 22 24 22 19 18 16 15 17 15 14 15 12 11 10 9 8 7 7 9 9 9 9 9
3 3 4 5 11 10 12 15 8 7 9 1 2 9 5 6 12 18 23 25 27 24 22 20 18 16 15 16 15 14 13 13 10 10 9 7 6 7 10 9 8 8 8 7
1 3 1 2 2 7 16 12 3 5 11 7 4 7 3 7 16 19 22 23 25 23 22 21 21 20 17 16 14 13 14 11 10 9 7 7 9 9 7 7 7 7 7 7
3 1 1 1 1 8 8 4 8 5 2 9 12 5 5 16 17 17 20 22 23 22 21 20 19 17 14 13 13 13 13 12 12 10 10 10 9 8 6 6 6 7 7 6
3 4 1 1 5 7 4 10 5 6 7 11 17 15 11 18 20 19 17 25 23 20 19 17 15 14 11 12 14 15 15 14 12 10 9 8 7 6 6 6 6 7 6 6
2 2 2 5 4 7 4 9 7 5 4 16 22 17 22 22 26 19 14 19 22 19 14 13 14 15 15 14 13 14 13 12 11 9 7 6 6 6 6 6 5 4 6 6
14 8 1 4 5 3 3 10 7 10 5 12 23 24 21 21 16 8 10 16 21 19 14 14 17 16 16 12 14 15 11 10 8 8 6 5 5 6 6 4 5 3 4 6
7 7 6 4 5 3 4 17 11 4 4 10 19 17 14 15 12 16 14 17 19 16 16 17 20 15 11 12 15 13 11 9 6 7 8 9 7 6 5 5 5 4 5 5
5 5 5 5 3 4 14 15 3 1 11 15 16 19 25 22 19 18 16 16 16 17 17 19 17 13 11 12 13 10 9 4 7 8 9 7 7 6 6 9 7 9 7 6
5 4 3 4 2 8 15 18 15 8 17 18 24 17 25 21 18 17 15 15 13 16 16 15 15 14 12 12 10 9 5 7 8 9 9 8 8 8 8 8 6 7 7 5
7 6 3 2 8 15 17 16 15 20 19 18 17 19 16 24 18 18 16 13 14 14 14 13 14 12 10 9 10 7 8 8 9 8 8 8 8 7 7 6 5 5 6 4
4 9 7 3 6 10 21 15 18 22 23 21 19 17 16 20 17 17 16 15 13 13 12 11 11 9 9 8 8 8 7 6 7 6 7 7 6 5 6 5 4 4 3 4
5 4 4 3 7 2 7 12 12 21 18 16 19 20 17 17 16 17 15 12 11 11 10 9 8 9 8 6 6 7 6 5 6 6 6 5 4 4 3 3 3 5 4 5
Wind_Direction
201 184 228 246 227 234 245 263 258 265 218 209 239 234 233 225 181 205 197 190 211 184 165 134 140 151 151 154 155 166 167 170 153 119 169 164 154 147 114 174 178 176 180 158
344 249 246 244 239 243 262 246 258 291 241 215 231 241 211 216 209 191 192 199 208 193 130 162 142 149 162 163 171 161 173 165 162 148 218 37 84 91 172 111 125 208 196 148
213 232 251 225 232 238 242 249 249 256 284 237 219 238 215 216 201 196 212 189 201 195 161 192 151 155 155 155 171 170 170 168 171 186 142 110 59 356 80 56 79 117 127 110
239 243 242 234 237 213 242 249 273 247 268 247 208 224 218 198 206 199 204 198 209 173 170 189 145 148 154 155 157 164 162 165 195 216 170 127 175 188 72 135 90 44 54 80
224 307 217 224 224 212 230 249 263 293 250 271 220 194 223 184 198 211 203 203 210 181 178 164 144 155 156 148 162 172 157 141 214 221 183 125 181 178 6 74 95 96 89 71
250 260 270 259 211 221 191 227 258 258 272 227 240 168 207 182 202 204 191 199 195 179 193 129 145 145 145 147 161 171 173 179 200 237 187 179 158 216 204 154 116 102 95 84
252 235 235 224 173 215 188 175 219 190 216 217 240 347 224 208 210 174 171 194 196 185 145 135 134 142 138 150 150 152 162 175 188 188 181 171 149 160 163 140 105 114 102 86
284 288 208 198 193 166 182 127 232 164 156 177 178 211 241 211 195 170 166 180 184 158 129 142 145 143 138 142 131 131 120 100 81 102 102 101 104 117 87 96 111 107 97 95
300 269 230 181 165 165 145 150 189 301 231 96 160 286 310 192 157 153 177 156 178 105 129 133 131 130 129 109 94 91 89 76 83 81 78 85 89 97 105 97 99 98 109 93
241 289 223 159 160 190 160 146 153 224 207 115 159 189 223 182 176 174 149 134 106 116 119 120 115 109 97 94 94 90 86 82 84 85 85 77 80 81 86 92 85 83 88 85
270 254 108 133 172 154 134 101 126 268 220 153 130 225 350 282 168 149 117 118 120 122 115 111 110 106 106 101 99 95 91 89 80 79 83 80 75 86 83 82 87 94 89 88
302 335 255 184 60 154 164 159 146 150 277 342 170 293 331 310 135 125 124 119 117 116 114 111 106 107 102 102 102 99 100 97 92 90 91 88 82 82 83 79 76 74 71 64
351 327 345 71 17 343 207 156 157 209 76 237 103 169 339 49 117 123 123 118 115 114 106 104 101 104 105 104 101 103 103 100 98 95 90 87 83 83 82 77 68 70 80 74
214 251 239 199 110 183 167 161 259 137 117 312 25 124 60 82 115 117 112 111 111 107 107 106 106 104 103 106 103 99 101 95 95 90 86 82 82 90 83 81 81 77 83 82
180 266 232 221 219 254 151 157 262 126 139 50 113 108 69 70 96 113 111 109 106 106 105 105 103 103 102 98 97 102 98 96 96 91 87 91 88 77 84 79 81 80 80 86
335 258 319 30 134 106 122 153 178 88 97 249 156 85 342 95 107 105 103 106 101 99 100 100 101 98 98 103 108 106 96 90 91 91 89 75 79 81 77 77 75 81 81 82
218 279 359 306 312 88 72 5 150 64 151 183 152 131 112 101 95 101 104 98 99 99 100 98 97 98 100 101 103 93 87 81 74 74 73 75 75 71 68 74 81 95 91 85
249 175 68 152 53 60 61 355 85 119 256 99 97 97 92 98 94 88 93 105 98 97 96 95 97 89 86 87 87 86 82 79 77 74 79 81 83 82 75 73 70 91 106 102
147 358 106 104 72 124 41 18 12 20 76 128 115 104 110 105 82 63 85 92 97 91 87 89 91 89 81 79 82 81 79 82 82 80 80 82 87 83 79 76 72 81 108 94
4 5 46 86 81 101 61 322 323 282 38 135 126 130 138 129 100 107 89 96 92 86 84 89 85 76 72 66 76 74 67 70 69 68 61 47 72 83 73 56 70 58 95 110
344 357 21 29 100 44 1 315 298 132 164 138 128 133 122 107 104 119 104 87 82 86 87 82 69 69 62 68 76 72 75 68 65 66 58 45 47 55 35 45 40 58 96 86
11 332 11 340 61 95 352 325 137 248 116 120 102 105 104 107 111 109 106 95 92 94 83 77 78 67 56 55 69 66 68 63 66 60 56 43 45 40 34 65 42 42 81 66
31 17 350 16 355 286 283 247 264 121 105 114 113 117 117 114 105 101 98 90 88 86 84 79 82 73 55 51 54 59 28 65 62 59 51 49 50 42 47 55 53 57 50 52
339 4 27 262 331 339 1 56 80 85 93 99 106 114 108 109 107 104 100 99 85 80 81 83 79 73 65 56 53 45 61 66 64 56 50 48 55 48 44 54 49 65 62 50
330 322 326 35 339 337 15 26 73 76 79 81 79 90 97 101 97 99 94 90 92 93 90 86 90 89 77 63 59 52 58 64 69 57 54 54 51 60 65 52 41 65 52 80
359 340 3 23 331 17 6 19 74 87 84 84 86 82 76 82 92 93 89 86 87 98 104 98 96 101 96 86 71 62 58 73 71 64 55 48 52 51 65 77 62 37 34 4